DECAYED
Showing default

PRC TEST SPACECRAFT 3, 58573 (Decayed)

Orbit data source: Space-Track

PRC TEST SPACECRAFT 3, 58573 was a payload satellite owned by PLA SSF (CN) in LEO that was launched on Thu, 14 Dec 2023 UTC via a CHANG ZHENG 2F launch vehicle from the Jiuquan Satellite Launch Center, China (JSC). Payloads include a variety of satellites, spacecraft, and rockets equipped with specific instruments for various scientific and technological missions. These include communications satellites like Starlink; space stations such as the ISS; scientific satellites like the Hubble; Earth observation satellites from companies like Planet Labs, Umbra, and HawkEye 360; GPS; miniature CubeSats for education and research; and military/defense satellites.

Loading next visibility...
PRC TEST SPACECRAFT 3 details
Identifier
58573, 2023-195A
Orbit
Decayed
Last TLE update4 months ago
Origin
Flag of CNPLA SSF (CN / PRC)
ManufacturerCAST
MissionDecayed Defense Technology
Bus & MotorCSSHQ, Unknown motor
Mass~8,000 kg wet, 8,000 kg dry
Launch date (UTC)
2023-12-14 (1 year ago)
Launch vehicle
CHANG ZHENG 2F
Launch site
Jiuquan Satellite Launch Center, China (JSC)
Object type
Payload
Rocket body
Debris
Shape & HBRBox + 2 Wing, 10 m
Radar Cross Section41.125 m², Large (>1 m²)

Expand to show TLE details & history

TLE from 4 months ago
0 PRC TEST SPACECRAFT 3
1 58573U 23195A   24249.91087289  .00068198  00000-0  43062-3 0  9993
2 58573  49.9845  44.6623 0001179  54.9199 305.1887 15.75933037 40424
Epoch: 2024-09-05T21:51Z
Definitive object data (Epoch: 2024-09-05T21:51:39.417Z)
Latitude-0.00011°
Longitude91.25699°
Altitude342.085 km
Speed7.705 km/s
True Right ascension02h 58m 38s
True Declination0° 00' 00"
Sunlit
Object was in full shadow at TLE epoch
Visualization TLE readout
Latitude50.14102°
Longitude-169.54967°
Altitude257.507 km
Speed7.759 km/s
Apparent Right ascension04h 18m 19s
Apparent Declination16° 40' 41"
Sunlit
Object is in daylight
Visualization observer readout
Local Sidereal Time12:23:27
Azimuth303.376° NW
Elevation-11.383°
Doppler factor1
Orbital elements
Apogee altitude343.562 km
Perigee altitude341.977 km
Semi-major axis6,720.906 km
Eccentricity0.0001179
Inclination49.9845°
RAAN44.6623°
Arg. of periapsis54.9199°
True anomaly305.17766°
Mean anomaly305.1887°
Eccentric anomaly305.18318°
Mean motion3.93914 °/min
BSTAR0.00043062
Orbital period91.39 mins
Loading maneuver chart data...
Loading historical data...
Loading historical data...
Loading historical data...
Loading historical data...
Loading historical data...
Loading historical data...
Loading historical data...

PRC TEST SPACECRAFT 3 Visibility forecast

Observer location: undefined°, undefined

Span
Click to sort rows by Start time (UTC) header in descending order
Start Az.
Max El. time (UTC)
Max El. Az.
Max El.
End time (UTC)
End Az.
4 mins2025-01-15 11:49:12.802Z305.465° NW2025-01-15 11:51:12.802Z19.756° NNE44.878°2025-01-15 11:53:12.802Z123.26° SE
|